Location: Home
(42.5358°N, 72.7383°W)
Time: 00:55:11
(UTC-05:00)

Vanguard 3 - Pass Details

Date: 01 December 2021
Orbit: 508 x 3260 km, 33.3° (Epoch: 21 January)

Event Time Altitude Azimuth Distance (km) Brightness Sun altitude
Rises 00:30:15 0° 179° (S) 6,746 - -66.8°
Reaches altitude 10° 00:38:23 10° 158° (SSE) 6,070 - -66.0°
Exits shadow 00:46:32 14° 133° (SE) 5,828 11.4 -65.1°
Maximum altitude 00:46:34 14° 133° (SE) 5,828 11.4 -65.1°
Drops below altitude 10° 00:54:42 10° 107° (ESE) 6,093 11.6 -64.1°
Sets 01:02:40 0° 87° (E) 6,801 12.1 -63.1°
